Theta_e
281 281 281 281 282 282 282 282 281 281 281 281 281 281 280 280 281 280 280 280 281 280 279 279 279 280 279 279 279 279 278 278 279 279 278 278 279 280 279 279 279 280 280 280 280 280 281 281 282 282 282 282 281 282 282 282 283 282 282 283 284 284
281 282 282 282 281 281 281 281 280 280 280 280 280 279 280 280 280 281 281 282 281 281 280 280 280 280 279 279 278 279 278 278 279 279 279 279 279 279 279 279 278 279 278 279 279 279 279 279 280 281 281 281 281 281 281 281 281 281 281 281 282 283
281 282 282 283 283 283 283 283 283 283 282 281 281 280 279 279 280 280 280 280 279 279 278 278 279 279 279 279 278 278 278 278 279 279 278 278 279 278 279 278 278 279 279 278 279 278 278 279 279 279 279 279 280 280 280 281 281 280 280 281 281 281
283 283 283 284 283 283 283 283 282 282 282 281 280 279 278 279 279 279 279 279 279 278 278 278 278 278 277 277 278 278 278 278 278 278 279 279 279 278 278 278 278 278 278 278 278 279 279 279 279 278 278 278 278 279 280 280 280 279 279 280 279 280
284 283 283 282 282 282 281 281 280 280 280 280 279 279 279 278 278 277 277 277 277 277 277 276 277 276 276 277 277 277 278 278 279 278 278 278 278 279 278 278 278 278 278 278 278 278 278 278 278 278 278 278 278 278 278 279 278 278 278 279 279 279
281 281 281 281 280 280 280 279 279 279 279 278 278 279 278 278 278 277 278 278 277 276 276 276 276 276 276 276 276 276 277 277 277 277 277 278 277 278 278 278 278 278 277 277 278 278 277 278 278 278 278 278 278 278 278 278 278 278 278 278 278 279
279 280 279 279 278 278 278 279 279 278 279 278 278 278 278 277 277 277 277 277 277 276 276 276 275 275 275 275 275 276 276 276 277 276 276 276 276 276 276 277 276 276 276 277 277 277 277 277 277 277 277 278 277 277 277 277 277 277 277 277 278 280
279 279 278 278 278 278 279 279 278 278 278 278 277 277 277 277 277 277 277 277 277 276 276 275 275 275 275 275 275 276 276 276 276 275 275 275 276 276 275 276 276 276 276 276 276 276 276 276 276 276 277 277 277 277 277 277 277 277 277 277 277 277
279 279 278 278 278 278 279 278 278 277 277 277 277 277 277 277 277 276 276 276 275 275 275 275 275 275 274 275 275 275 275 275 275 275 275 276 275 275 275 275 275 275 275 275 275 275 275 276 276 276 276 276 276 276 276 276 276 277 277 277 278 278
279 278 278 277 277 277 276 276 276 277 276 276 276 276 276 277 276 275 275 275 275 275 275 275 274 275 275 275 275 275 275 275 274 274 274 274 274 274 274 274 274 274 274 274 274 274 275 275 275 275 275 275 275 275 276 276 276 277 277 277 278 278
279 278 277 277 276 276 276 276 276 276 276 276 275 275 275 275 275 275 275 275 274 274 274 275 275 275 274 274 274 273 273 272 272 272 272 272 272 272 272 272 272 272 272 272 272 272 273 273 273 274 274 275 275 276 276 276 277 277 276 277 277 278
277 277 277 276 277 277 276 276 276 276 275 275 275 274 275 274 274 274 274 274 273 274 274 274 273 273 272 272 271 271 271 270 270 270 270 270 270 269 270 270 270 270 270 270 270 270 271 271 272 273 276 277 276 275 276 276 276 276 276 276 276 276
276 276 276 276 275 276 276 276 276 275 274 274 274 274 274 273 273 273 272 272 273 272 272 272 271 271 270 270 270 269 268 268 268 267 267 267 267 268 268 268 268 268 268 268 268 268 268 269 270 273 275 277 278 276 275 275 275 275 275 275 275 275
277 276 276 276 276 276 276 276 275 274 274 274 273 273 273 272 272 272 272 271 271 271 271 270 269 268 268 267 267 266 266 266 265 265 265 265 266 266 266 266 266 266 266 266 266 266 266 267 270 273 274 275 276 276 274 274 273 274 274 274 274 274
277 277 276 276 276 276 275 275 274 274 273 273 273 272 271 271 270 270 270 270 269 269 269 268 266 266 265 265 264 264 264 263 263 263 263 263 264 264 264 264 264 264 265 265 264 264 265 265 268 271 273 274 275 275 274 272 273 273 273 273 273 273
276 276 276 276 275 275 274 274 274 273 273 272 271 270 270 269 269 269 268 268 268 267 267 266 263 263 263 263 263 262 262 262 262 262 263 263 263 263 262 262 263 263 263 263 263 263 263 263 266 271 272 273 274 275 274 271 271 271 271 271 271 271
276 276 275 275 274 273 273 273 273 272 271 271 270 269 268 268 267 267 268 266 266 265 264 264 263 262 262 262 261 261 260 261 261 261 261 261 261 261 261 261 261 261 262 261 261 261 261 262 268 270 271 272 273 274 274 270 270 269 269 269 269 269
276 276 275 275 273 272 272 272 271 270 269 269 269 267 268 266 266 266 266 264 264 263 264 262 261 261 260 261 260 259 260 260 260 260 260 260 260 260 261 261 261 260 260 260 260 260 260 261 268 269 270 272 273 274 270 268 268 268 268 268 269 269
277 276 274 273 272 271 271 270 269 268 267 266 265 265 265 265 264 264 264 263 263 262 262 262 261 260 260 260 259 258 259 259 259 259 260 259 259 260 259 259 259 260 260 259 260 259 260 260 264 268 270 271 272 271 267 267 267 267 267 267 268 269
275 274 273 271 270 270 269 268 267 266 265 265 265 263 264 263 263 263 262 262 261 262 262 261 259 259 259 258 258 258 259 259 259 258 259 259 258 258 258 259 259 259 259 259 259 259 259 260 263 268 269 270 271 270 267 267 266 266 267 267 268 268
274 272 271 270 268 268 267 265 265 264 264 264 264 263 262 263 263 262 261 262 262 261 260 259 259 259 258 257 258 257 257 258 258 258 258 258 258 258 258 258 258 258 258 258 259 261 260 260 262 266 268 270 270 269 267 267 267 266 266 266 266 267
271 269 269 268 268 266 265 263 263 263 263 264 263 262 261 263 262 262 262 261 261 259 258 258 258 258 257 257 257 257 257 258 257 257 258 258 257 257 257 258 257 257 257 258 258 259 259 259 259 262 268 269 270 271 268 267 266 265 266 266 266 266
272 271 269 268 266 265 264 263 263 262 262 263 262 261 262 262 262 261 261 261 259 258 257 257 256 257 256 257 257 257 257 257 257 257 257 256 257 256 256 256 257 257 257 258 258 259 259 259 259 261 267 269 270 271 270 267 267 267 266 266 266 267
269 267 267 266 265 264 262 262 262 262 261 261 260 260 262 261 261 260 258 258 257 256 255 255 256 256 256 256 256 256 256 257 256 256 256 256 256 255 255 256 256 256 257 257 258 258 258 260 262 261 265 268 270 271 272 268 268 269 268 268 268 268
268 267 266 264 263 263 262 260 259 260 259 259 259 261 259 260 259 259 258 256 255 255 254 254 255 255 255 255 256 255 255 256 255 255 255 255 255 255 255 255 256 256 256 256 257 258 258 259 259 264 263 268 270 271 272 272 271 273 271 269 267 268
267 266 264 263 262 262 262 259 259 258 258 259 261 260 258 257 257 256 255 254 253 253 254 253 254 254 254 254 254 254 254 254 254 255 255 255 255 254 254 255 255 255 255 255 256 257 258 259 260 263 267 266 270 271 273 273 274 274 271 270 269 269
266 264 263 262 261 260 259 258 257 257 256 259 259 258 257 256 254 253 252 251 251 252 253 253 253 253 254 254 254 254 255 254 253 254 254 254 254 254 254 254 255 254 254 255 256 258 259 260 261 261 264 269 270 272 272 273 274 274 274 270 270 270
263 263 262 260 260 260 258 258 257 256 257 258 258 257 256 254 253 252 252 252 252 253 253 253 254 254 254 254 254 254 255 254 254 254 254 254 254 254 254 254 254 255 256 257 258 259 260 262 263 264 265 266 268 269 270 272 273 273 273 273 272 274
263 263 262 262 260 259 257 255 256 256 257 255 257 256 254 252 252 253 252 252 252 252 252 253 253 254 255 254 255 255 255 255 254 254 254 254 253 254 254 255 255 256 257 258 259 261 262 262 263 265 266 266 266 266 267 268 268 271 272 269 268 269
264 262 261 262 261 260 259 258 256 255 254 254 256 253 252 252 252 252 251 252 251 252 253 253 255 256 254 254 254 254 254 254 254 253 254 254 254 255 256 256 257 258 259 259 260 260 260 263 265 266 266 266 267 267 268 269 269 269 268 268 267 267
263 262 261 261 261 260 260 257 255 254 255 257 254 252 251 252 253 251 251 251 252 252 254 254 254 253 254 254 254 254 254 254 254 255 255 257 257 257 257 257 258 260 262 263 263 264 264 265 265 266 270 270 273 271 270 270 270 270 270 272 274 272
262 260 260 260 260 258 257 256 255 253 256 254 253 252 251 252 251 250 250 251 251 252 252 253 253 252 254 253 253 254 254 258 262 262 260 260 264 267 269 269 266 266 267 266 267 267 265 265 267 272 273 273 274 274 275 274 275 275 273 275 276 273
260 259 258 259 258 256 255 256 256 254 253 254 254 252 251 250 251 251 252 252 252 253 254 253 253 253 253 253 254 253 254 254 256 261 264 265 266 267 269 269 270 270 271 268 266 267 271 271 272 273 273 273 273 274 274 274 275 275 275 275 272 269
258 258 257 257 256 255 254 255 255 253 252 252 252 252 251 251 251 251 252 252 252 254 254 253 254 254 253 253 254 253 253 253 253 255 260 264 266 267 268 268 269 269 269 269 269 267 266 269 271 272 272 273 273 273 273 273 273 273 273 273 272 266
258 258 257 256 255 255 255 255 255 253 251 252 251 251 250 250 250 251 251 252 253 253 254 254 253 253 253 253 253 253 253 253 253 253 254 257 263 265 265 266 266 267 268 269 269 270 270 270 270 271 272 272 272 271 271 271 271 270 270 269 264 262
257 257 256 256 255 255 254 254 253 252 252 251 251 251 250 250 250 251 251 251 252 253 253 253 253 253 253 253 254 253 253 253 253 254 254 254 255 257 260 262 263 265 266 267 268 269 269 270 270 271 272 271 270 270 269 268 264 266 267 265 260 260
255 254 255 255 255 254 253 253 253 252 251 251 250 249 249 249 252 250 253 255 255 252 253 253 254 254 253 253 253 253 253 254 254 255 255 254 254 254 254 255 257 261 265 264 265 267 268 269 270 271 270 269 268 268 268 264 258 257 257 258 258 259
254 253 254 255 254 253 253 253 253 252 252 250 248 249 249 251 252 251 253 253 253 253 253 253 253 254 253 253 253 253 254 255 255 255 254 255 255 254 254 255 256 257 261 265 266 266 267 268 270 270 268 267 267 267 265 256 255 255 256 256 257 257
Wind_Speed
4 4 4 3 3 3 4 4 3 3 3 3 4 4 3 3 2 2 2 2 3 3 4 4 4 4 4 3 3 2 4 5 5 5 4 4 4 5 6 6 6 6 6 5 5 6 6 6 7 8 8 8 8 8 8 7 6 6 7 6 5 5
4 5 5 4 4 4 3 3 3 5 4 4 3 2 2 2 3 2 3 2 3 3 3 3 2 2 3 2 4 4 4 4 5 5 7 7 6 6 6 7 7 7 8 7 7 7 7 6 6 6 6 6 6 7 8 9 10 10 9 8 5 4
4 4 3 3 2 1 2 3 3 2 3 3 3 3 3 4 3 3 3 3 4 4 5 4 4 5 4 5 5 4 4 4 4 4 3 4 5 4 6 6 7 7 7 7 7 7 7 7 8 6 6 6 7 6 6 7 8 9 9 10 13 9
5 3 2 1 1 2 3 1 2 2 2 1 2 2 2 2 3 3 3 3 3 4 4 4 3 3 4 4 4 4 4 4 4 4 5 5 6 5 6 6 5 5 6 6 8 8 9 8 8 8 7 8 8 8 5 6 7 7 8 7 8 10
6 5 5 4 4 3 2 1 1 1 1 0 0 0 1 0 1 1 1 2 3 3 3 3 3 3 4 4 4 5 5 5 6 5 5 6 6 5 5 6 6 7 8 8 9 9 9 9 9 8 8 8 9 10 9 8 7 8 8 9 9 8
4 4 4 4 3 3 4 4 2 1 1 2 1 2 3 3 2 2 2 2 3 3 4 4 4 4 4 4 4 5 5 5 5 5 5 5 5 7 7 5 6 6 6 7 8 8 8 10 10 10 8 8 8 9 10 10 9 9 8 9 9 9
4 5 5 4 4 4 3 3 3 2 3 2 2 2 3 4 4 3 2 2 3 4 4 5 5 4 5 5 5 5 5 5 5 5 4 5 5 4 5 6 4 5 5 6 7 8 8 8 9 9 9 8 7 8 9 9 9 9 10 10 10 9
5 4 5 4 4 4 4 4 3 2 1 4 3 1 2 1 1 1 1 1 1 3 5 4 5 5 5 5 4 5 5 5 4 4 4 4 5 5 4 5 5 5 7 7 7 8 8 8 8 8 9 9 9 9 9 9 9 10 10 11 11 10
6 6 5 4 4 3 1 0 1 1 1 1 3 1 1 1 1 1 0 1 2 3 4 4 4 3 3 3 4 4 3 4 4 5 6 6 6 7 7 7 7 7 6 8 8 8 9 9 8 8 8 9 8 8 9 10 11 11 10 10 11 11
5 5 4 3 3 0 1 1 2 2 2 3 2 3 3 2 2 3 3 4 4 4 2 2 3 2 3 3 3 3 4 5 5 6 6 6 7 7 7 8 9 9 8 9 9 9 8 9 9 8 8 8 8 9 10 10 11 12 12 12 12 11
5 5 4 4 3 3 3 3 3 4 4 3 3 3 3 2 4 5 5 4 3 3 2 2 3 3 3 3 3 4 5 5 5 6 6 5 6 6 6 7 7 9 10 8 8 9 9 9 9 8 9 10 11 10 11 11 12 12 13 13 13 12
4 4 4 4 5 4 4 4 4 4 5 4 3 3 2 3 4 4 3 4 2 2 1 1 2 2 2 3 4 5 6 6 7 7 7 7 6 6 7 7 7 7 8 11 11 9 9 8 7 12 22 19 14 13 12 12 12 12 12 12 12 11
5 4 4 4 4 5 5 5 5 4 4 3 3 3 2 3 4 3 4 3 2 2 2 3 4 5 6 6 7 6 7 9 8 8 7 7 7 8 8 8 9 9 10 10 11 12 10 9 9 20 20 22 23 16 12 11 11 11 11 12 11 13
6 5 5 4 4 6 7 6 5 4 4 3 3 2 2 3 4 5 4 3 3 4 5 5 5 6 6 6 6 7 6 7 7 8 8 9 10 9 8 9 9 10 9 9 11 11 10 10 14 21 22 23 23 21 16 12 12 10 12 11 11 11
8 7 5 5 6 6 4 5 5 4 3 3 2 2 3 4 4 4 3 3 3 4 4 4 4 4 4 5 6 6 6 7 7 7 8 9 8 9 9 10 11 10 9 10 12 11 11 10 16 20 22 22 23 23 20 12 12 11 11 10 12 11
4 5 6 6 5 4 4 4 5 4 3 3 3 3 3 4 4 4 3 3 3 3 3 4 4 4 4 4 5 5 6 6 7 6 6 7 8 7 8 7 9 8 9 9 11 12 11 10 16 22 23 23 24 23 21 14 15 15 14 15 14 14
5 5 5 6 7 6 6 5 4 4 3 3 4 3 5 4 3 3 3 3 3 3 3 4 3 4 4 4 5 5 5 6 6 6 6 6 7 8 8 8 9 8 8 9 10 11 12 10 20 22 24 24 24 24 22 14 14 14 13 13 12 13
11 11 9 5 6 5 4 5 4 4 3 3 5 4 4 3 3 3 2 2 2 3 3 3 4 4 4 5 5 5 7 6 5 7 7 6 6 5 6 7 6 9 10 9 10 11 12 11 21 23 23 25 24 26 16 13 13 13 13 13 13 13
9 7 7 7 6 6 5 4 3 4 4 3 3 4 2 2 2 2 1 1 2 2 3 4 4 5 5 5 6 6 6 7 7 6 5 7 6 7 7 7 8 7 9 11 10 11 12 11 16 23 24 25 26 21 13 13 12 11 13 13 13 13
5 5 8 8 6 4 4 4 4 4 4 3 3 3 1 2 2 1 1 1 1 3 4 3 4 5 6 5 6 7 7 6 5 5 5 7 9 8 7 8 8 7 7 10 11 10 12 12 16 23 24 25 26 22 15 12 11 13 13 13 13 12
8 8 7 7 7 5 4 4 5 4 3 3 2 1 1 1 1 1 1 1 2 2 3 3 3 4 5 6 7 6 8 7 7 6 5 6 6 8 7 8 8 9 8 8 10 15 15 12 14 22 24 26 24 20 13 11 10 12 13 13 13 11
9 6 8 9 8 6 6 4 4 3 3 2 2 1 2 3 2 1 0 1 2 2 3 3 4 4 5 7 7 6 7 6 6 6 6 6 6 7 7 7 8 10 10 9 9 10 10 12 12 15 26 24 25 25 16 11 11 11 13 12 13 13
10 12 10 7 8 7 5 4 4 3 3 3 2 4 3 3 2 1 0 1 2 2 3 3 3 6 6 5 7 6 6 6 7 7 6 7 7 6 8 8 9 9 10 9 9 9 10 9 13 14 25 25 25 26 22 12 12 12 12 12 13 11
6 6 5 6 8 7 5 4 5 3 4 3 4 4 3 2 1 0 1 2 2 3 3 4 4 4 5 5 6 7 7 6 5 6 7 6 6 8 9 9 8 9 9 8 9 9 10 11 17 15 20 25 26 25 27 16 13 14 13 13 9 9
9 9 9 6 6 6 4 5 5 4 4 4 4 3 3 2 1 1 1 2 3 3 4 4 5 6 5 6 6 6 8 6 5 6 6 7 7 7 8 9 9 9 9 9 8 8 10 11 12 21 18 23 26 27 26 27 22 25 17 12 13 12
7 7 6 6 5 4 4 5 5 4 4 5 2 3 2 1 0 1 1 2 3 4 4 5 5 5 5 6 6 6 7 7 6 6 5 6 6 7 8 7 7 8 8 10 10 9 10 10 10 15 22 20 25 26 27 28 28 28 17 14 12 10
11 8 6 5 4 4 4 4 5 4 4 2 3 1 1 1 1 1 2 4 4 4 4 5 5 6 6 6 6 6 7 7 5 6 5 5 5 6 7 8 7 8 8 8 10 10 10 11 11 11 14 23 25 27 28 29 29 28 29 19 13 14
7 8 8 5 4 4 4 4 4 4 3 2 2 1 1 1 1 2 4 4 4 4 4 5 6 6 6 6 5 6 6 7 6 6 7 5 6 5 7 8 7 8 8 9 9 11 12 12 12 12 11 11 16 18 26 30 29 29 29 27 22 28
9 9 9 9 5 5 4 4 3 4 2 2 2 2 1 1 1 3 4 4 4 4 4 5 6 6 5 5 5 5 6 5 5 6 7 6 6 6 7 8 8 8 8 10 12 12 13 13 13 11 10 10 11 12 14 15 15 22 25 18 14 16
10 10 9 8 7 6 6 4 4 3 3 3 2 1 1 1 2 3 4 4 4 4 4 5 7 7 6 6 5 6 7 5 5 6 7 8 6 7 8 8 9 10 11 12 14 11 9 9 9 10 11 12 12 12 11 10 11 10 9 11 11 13
9 9 9 8 6 7 6 5 4 3 4 3 2 2 2 2 3 3 4 4 4 5 4 5 5 6 6 7 6 6 7 8 6 7 8 9 8 8 8 9 12 11 10 9 7 9 12 11 10 9 16 19 23 20 16 12 11 11 11 14 24 17
10 10 9 7 7 6 5 4 3 3 4 3 2 3 3 3 3 3 4 4 4 4 4 5 5 5 6 6 7 8 8 9 14 10 8 9 13 17 19 17 11 10 9 9 8 8 10 10 12 24 29 27 28 28 29 27 29 29 23 25 31 18
7 7 7 6 5 4 4 3 3 3 3 4 3 4 4 4 3 3 4 3 4 4 4 5 5 5 5 5 6 6 8 11 10 12 15 16 15 16 18 19 20 21 19 12 10 11 22 25 26 26 26 27 26 27 27 27 26 27 28 27 19 11
7 7 7 5 5 5 4 4 4 4 4 3 3 3 4 4 4 4 4 4 3 5 5 4 5 5 5 5 5 5 6 7 11 14 9 9 12 14 16 17 17 15 15 18 18 15 11 17 22 25 25 26 27 26 26 25 26 26 25 24 21 10
7 5 5 6 6 5 5 5 5 4 4 4 4 3 4 4 4 5 4 4 4 4 5 5 4 4 4 5 6 6 4 6 7 9 15 17 14 11 9 11 9 11 16 20 20 21 19 19 21 24 24 24 25 25 24 25 24 22 22 21 12 9
6 6 6 6 6 6 5 6 6 5 4 4 4 4 4 4 5 5 4 4 4 5 5 4 4 4 5 4 5 5 6 5 5 7 8 10 14 20 12 1 3 7 16 19 21 20 20 22 23 23 23 23 23 23 23 22 16 18 18 15 10 10
6 5 5 6 6 6 5 7 6 5 4 3 4 4 4 4 5 4 5 7 6 4 5 5 4 5 5 5 5 5 5 6 6 6 6 7 9 9 11 16 14 13 16 16 14 16 20 22 22 22 22 23 22 23 23 19 11 13 12 10 8 9
6 5 4 4 5 5 5 8 5 4 4 4 4 4 5 5 5 4 3 3 4 4 4 4 4 4 5 5 5 5 5 5 6 7 6 7 6 7 10 12 11 11 18 24 21 22 23 23 22 22 22 21 22 21 21 12 11 10 10 10 9 9
Wind_Direction
165 161 157 166 154 144 136 138 128 113 110 110 101 104 123 132 139 132 101 78 84 82 71 67 57 60 61 52 52 51 47 31 22 22 5 356 1 3 360 0 357 356 351 352 339 337 336 336 337 340 340 344 341 341 337 337 345 337 328 325 333 319
175 165 162 162 158 148 149 125 90 64 66 76 80 96 114 103 71 79 69 54 72 62 75 66 79 77 70 67 45 35 35 21 20 8 8 356 352 358 356 357 352 349 347 344 340 334 332 329 326 327 326 328 331 330 334 330 336 335 330 323 318 310
190 187 179 169 160 117 73 73 90 101 66 68 66 69 29 37 17 41 35 35 32 47 37 22 25 21 19 23 23 24 8 4 7 5 341 341 347 351 347 347 343 339 338 335 333 331 328 328 327 329 326 325 321 320 315 316 324 325 323 327 325 324
192 196 178 162 136 155 126 68 121 93 93 54 32 38 27 37 5 26 15 25 29 41 18 4 4 24 20 23 11 2 349 342 342 344 351 348 330 349 335 334 330 328 326 328 325 326 327 325 324 326 331 327 324 319 318 317 315 310 306 310 307 313
185 185 182 183 185 183 169 196 172 185 200 8 17 87 275 250 277 342 50 33 21 358 4 360 6 6 15 14 7 359 347 343 335 347 352 335 330 330 327 323 326 326 328 327 325 325 325 324 322 324 328 326 326 322 320 320 317 312 309 307 298 295
176 165 175 187 195 191 206 211 222 258 268 254 265 222 250 279 310 346 14 7 1 10 360 8 360 2 5 4 353 351 334 336 328 330 337 321 325 323 321 325 317 316 315 311 311 313 313 317 317 319 321 320 320 319 315 316 316 310 305 297 296 297
176 198 198 195 204 212 212 210 219 223 242 241 250 290 352 355 352 342 352 19 349 4 12 353 8 3 349 348 345 334 328 323 321 318 314 313 313 307 312 312 304 302 300 303 304 305 305 303 306 309 312 314 313 309 308 306 306 304 300 296 292 288
201 204 210 215 213 198 199 213 220 249 341 23 20 345 326 320 306 310 307 27 23 8 9 359 0 359 347 337 327 314 309 309 311 307 304 308 309 309 303 301 310 309 309 311 308 305 304 303 306 308 309 311 311 307 303 300 297 297 293 291 288 284
211 211 213 213 207 202 193 69 33 34 51 30 2 344 277 280 302 344 69 66 70 42 21 5 351 335 323 316 307 313 327 333 334 336 335 336 334 329 328 328 325 324 320 315 314 311 310 309 309 312 308 304 301 299 299 298 296 290 289 286 286 284
211 211 222 228 234 118 116 147 143 132 114 101 63 48 44 10 43 72 86 75 55 50 11 341 311 323 324 318 333 342 347 344 340 342 338 339 337 333 334 333 330 327 328 320 318 316 318 317 318 317 313 307 306 304 298 295 293 292 289 287 283 283
208 215 221 225 201 181 153 136 122 118 98 90 90 77 58 56 79 70 71 72 69 32 7 348 348 358 342 346 350 350 346 342 337 337 337 333 330 331 326 325 328 326 322 320 321 322 322 324 324 325 325 321 314 309 303 301 297 295 294 290 287 283
208 218 220 219 202 177 149 132 132 131 127 124 124 90 61 84 81 87 83 79 68 43 19 2 13 2 345 359 354 354 347 343 340 336 335 335 331 329 327 331 333 326 327 327 324 326 327 323 323 321 318 316 313 310 305 299 294 291 287 287 287 282
218 221 216 215 184 168 155 150 141 137 122 117 103 93 102 109 109 108 101 82 70 61 40 34 15 3 7 2 357 351 349 344 341 338 335 337 338 337 339 337 335 340 335 330 327 326 326 323 321 319 318 316 312 308 302 298 293 287 284 281 281 284
195 191 195 174 160 152 150 147 146 135 125 110 101 103 97 90 81 80 72 57 43 35 30 19 11 4 1 358 353 345 342 338 338 339 339 338 339 340 341 338 338 335 333 327 324 320 321 318 318 319 317 314 312 309 305 297 290 287 285 282 283 284
190 186 177 166 161 155 160 143 134 131 137 134 141 117 94 81 82 78 71 53 52 33 30 18 12 357 353 350 344 336 337 338 337 340 340 338 338 334 335 333 331 328 329 326 322 320 320 316 316 316 316 313 311 309 307 297 289 286 284 284 286 287
184 188 181 166 151 136 131 135 129 129 127 127 123 103 86 85 67 79 75 62 50 33 25 14 359 350 341 339 336 338 337 339 336 332 329 325 329 328 322 321 321 322 323 323 320 316 316 310 312 313 312 311 309 308 306 299 298 296 294 296 298 301
178 166 166 159 148 138 127 119 122 120 111 115 99 85 82 74 83 75 77 64 49 34 17 1 348 342 334 333 334 335 331 329 324 326 325 325 322 323 321 323 321 319 318 318 315 310 308 306 309 311 310 310 309 308 307 302 300 297 294 295 295 292
181 179 174 151 140 140 135 136 129 121 111 90 96 80 84 85 86 85 67 56 39 24 1 352 340 332 331 329 331 329 324 322 320 321 321 316 311 303 307 306 307 310 313 312 310 306 303 304 309 309 309 309 309 309 307 304 298 295 293 294 297 296
180 167 143 146 149 142 140 128 119 120 111 95 87 90 87 92 102 97 74 60 22 5 353 347 339 331 328 328 322 319 317 320 318 316 314 311 310 311 312 307 308 309 307 307 305 302 300 299 307 309 309 310 309 309 303 299 297 295 296 296 300 300
128 138 149 147 143 134 126 124 129 125 114 109 107 105 112 114 125 117 81 20 9 349 345 339 332 320 316 315 311 309 309 308 303 302 313 310 312 310 307 308 305 301 300 299 299 298 298 299 305 308 308 308 306 305 303 301 295 295 297 298 296 296
157 149 142 143 144 144 133 132 130 121 124 125 115 107 129 152 144 115 57 342 344 324 322 315 312 304 302 301 301 303 303 304 301 302 302 294 296 296 303 302 300 298 295 290 291 298 299 297 303 306 305 304 303 303 296 294 289 290 295 298 297 295
129 145 161 169 163 145 144 133 119 124 130 135 118 154 196 183 156 131 110 281 298 298 299 299 295 292 293 294 296 294 290 293 298 297 298 295 291 295 299 297 294 297 296 295 295 294 295 297 296 299 302 302 301 301 299 292 292 290 289 289 290 288
170 175 176 162 149 148 144 131 125 141 153 160 169 210 195 157 152 142 225 280 282 282 287 290 283 287 284 281 285 287 289 288 289 295 292 294 295 291 294 295 293 292 293 295 293 293 294 290 294 295 299 298 299 300 300 291 285 283 283 281 279 271
157 139 139 150 148 148 141 136 139 158 166 174 208 206 152 154 147 178 239 269 279 284 288 284 284 277 279 282 284 288 283 279 277 282 285 286 292 295 293 295 296 294 294 294 293 292 291 290 291 291 292 294 295 297 298 297 287 288 285 285 280 284
173 175 162 152 148 143 146 133 149 166 175 195 219 170 147 153 147 225 254 279 283 285 286 286 283 285 282 282 278 280 283 284 282 276 277 284 288 288 292 295 296 297 296 298 296 293 291 289 284 286 285 288 294 298 298 297 296 297 297 292 287 282
164 156 151 149 148 145 146 143 154 169 184 218 166 161 141 140 191 220 279 280 283 289 289 282 283 279 278 277 279 277 279 284 279 278 275 276 281 291 295 292 292 294 296 301 301 297 293 289 282 280 284 288 293 299 300 300 300 299 294 290 284 283
169 152 147 154 150 148 147 147 148 175 196 204 144 165 168 203 196 279 281 280 280 283 278 283 279 280 276 274 274 281 282 283 284 289 277 275 282 282 286 288 286 286 291 292 293 295 291 287 281 279 279 287 297 302 300 298 297 296 296 293 283 275
138 149 159 166 167 158 155 159 151 175 217 164 160 178 174 186 227 280 274 275 277 277 286 292 287 279 273 272 266 263 267 274 283 279 285 278 273 273 278 284 283 279 281 283 285 290 289 283 286 286 284 282 286 289 290 290 291 291 291 290 288 288
156 168 169 177 186 173 169 168 177 187 195 191 200 190 173 159 224 262 273 276 277 282 282 285 286 287 281 277 277 269 270 268 262 266 274 275 275 272 271 274 279 282 279 285 291 289 288 288 285 285 291 290 289 282 278 282 279 279 281 281 276 278
167 170 175 186 180 172 178 179 193 201 198 212 202 180 144 212 235 252 265 273 276 282 281 280 282 285 291 284 283 289 287 267 252 257 266 272 267 271 271 272 276 280 286 286 284 278 262 272 285 294 295 292 282 278 280 272 275 278 268 271 268 265
169 176 177 188 162 169 177 197 205 197 200 209 192 165 176 232 248 258 271 273 280 279 275 274 281 283 285 290 282 268 264 281 277 267 268 253 236 230 237 232 241 259 271 269 276 280 287 302 299 290 303 304 308 309 307 305 299 296 293 292 296 293
169 172 181 171 156 172 186 204 211 210 210 213 207 170 189 223 239 255 269 267 270 277 282 282 280 280 284 286 294 298 292 270 284 278 271 281 277 276 282 291 292 296 297 295 291 299 303 303 304 308 311 312 312 313 313 311 309 309 311 313 319 326
169 163 170 163 156 174 193 210 211 216 225 210 209 184 200 200 222 245 257 264 267 269 273 278 283 284 280 282 289 294 302 310 307 298 284 276 276 287 295 299 301 305 308 311 310 309 308 307 310 313 316 317 317 314 313 313 314 316 319 321 321 329
167 168 169 161 164 181 199 218 224 217 227 213 211 195 197 204 207 236 250 251 262 277 280 274 273 281 285 288 286 291 302 307 314 314 299 275 280 295 299 301 307 313 319 321 320 316 306 313 318 321 321 320 323 326 326 325 322 323 326 326 330 330
159 155 153 155 167 182 201 227 240 221 233 219 207 186 195 213 210 230 250 250 266 272 275 279 274 278 279 289 297 298 298 303 309 313 319 320 313 303 294 300 312 327 329 328 325 322 321 323 325 324 327 333 336 335 334 331 332 335 338 344 349 341
144 149 155 163 173 189 204 230 239 222 225 215 206 193 202 219 220 230 233 250 258 267 272 270 269 273 277 275 283 282 290 288 285 293 301 311 321 330 340 131 205 320 331 328 327 327 329 330 330 333 341 344 343 342 343 346 342 340 349 355 344 338
145 154 165 168 181 194 211 233 238 218 215 212 202 201 211 220 231 231 247 255 259 255 261 265 270 273 275 277 278 280 284 282 283 289 293 300 310 316 312 318 318 320 332 332 328 330 333 334 336 345 350 349 348 350 353 351 345 348 347 352 350 338
154 167 171 180 193 200 220 243 237 218 212 211 196 196 215 221 226 231 246 244 251 254 255 264 262 265 268 273 275 269 267 276 289 291 284 289 289 289 303 307 309 312 321 328 332 334 338 338 342 351 351 349 351 355 359 352 349 343 341 338 335 333